Voltar ao catálogo

FREGAT DEB

LostUNKNOWN
NORAD 45870·DEBRIS·🇷🇺 Russia

Lançado Jul 18, 2011 de Baikonur Cosmodrome

Loading…

Próximas Passagens (próximas 24 horas)

TLE

ObsoletoSource: Space-Track

Época: Jan 27, 2021, 00:55 UTC

1 45870U 11037CU  21027.03888359  .00058052  00000-0  14748+0 0  9995
2 45870  51.4098 323.8668 2257400 352.5751   4.6230  9.85556291 23423

Acompanhe FREGAT DEB em tempo real com AllMySat

Download on the App Store